• In Uzbekistan
  • List of Countries
  • For 7 days
  • Water Temperature
  • Satellite Maps
  • Weather Map
  • Weather Widgets
  • user-avatar
    Login

    Hourly Weather Ioannina

    Today, 23 August, Wednesday

    Time Temperature Precipitation Wind Pressure Humidity
    00:00 +15°C° 0 mm 1 mps 687 mmHg 51%
    01:00 +15°C° 0 mm 1 mps 686 mmHg 53%
    02:00 +15°C° 0 mm 1 mps 686 mmHg 53%
    03:00 +15°C° 0 mm 1 mps 686 mmHg 54%
    04:00 +14°C° 0 mm 1 mps 686 mmHg 54%
    05:00 +16°C° 0 mm 1 mps 687 mmHg 51%
    06:00 +19°C° 0 mm 1 mps 688 mmHg 48%
    07:00 +21°C° 0 mm 1 mps 688 mmHg 43%
    08:00 +23°C° 0 mm 1 mps 689 mmHg 42%
    09:00 +24°C° 0 mm 1 mps 689 mmHg 41%
    10:00 +26°C° 0 mm 1 mps 690 mmHg 40%
    11:00 +26°C° 0 mm 2 mps 690 mmHg 39%
    12:00 +27°C° 0 mm 2 mps 689 mmHg 39%
    13:00 +26°C° 0 mm 2 mps 689 mmHg 42%
    14:00 +26°C° 0 mm 2 mps 689 mmHg 43%
    15:00 +26°C° 0 mm 2 mps 689 mmHg 44%
    16:00 +26°C° 0 mm 2 mps 689 mmHg 45%
    17:00 +24°C° 0 mm 1 mps 689 mmHg 50%
    18:00 +22°C° 0 mm 1 mps 688 mmHg 55%
    19:00 +21°C° 0 mm 1 mps 688 mmHg 61%
    20:00 +20°C° 0 mm 1 mps 688 mmHg 62%
    21:00 +19°C° 0 mm 1 mps 689 mmHg 64%
    22:00 +18°C° 0 mm 1 mps 689 mmHg 66%
    23:00 +18°C° 0 mm 1 mps 689 mmHg 67%

    Tomorrow, 24 August, Thursday

    Time Temperature Precipitation Wind Pressure Humidity
    00:00 +18°C° 0 mm 1 mps 689 mmHg 68%
    01:00 +16°C° 0 mm 1 mps 689 mmHg 69%
    02:00 +16°C° 0 mm 1 mps 689 mmHg 70%
    03:00 +16°C° 0 mm 1 mps 689 mmHg 70%
    04:00 +15°C° 0 mm 1 mps 689 mmHg 71%
    05:00 +18°C° 0 mm 1 mps 689 mmHg 66%
    06:00 +19°C° 0 mm 1 mps 690 mmHg 61%
    07:00 +21°C° 0 mm 1 mps 690 mmHg 56%
    08:00 +23°C° 0 mm 1 mps 691 mmHg 49%
    09:00 +25°C° 0 mm 1 mps 691 mmHg 43%
    10:00 +28°C° 0 mm 1 mps 692 mmHg 36%
    11:00 +28°C° 0 mm 1 mps 692 mmHg 34%
    12:00 +29°C° 0 mm 2 mps 692 mmHg 32%
    13:00 +30°C° 0 mm 2 mps 692 mmHg 30%
    14:00 +29°C° 0 mm 2 mps 692 mmHg 31%
    15:00 +28°C° 0 mm 2 mps 691 mmHg 32%
    16:00 +28°C° 0 mm 2 mps 691 mmHg 34%
    17:00 +25°C° 0 mm 2 mps 691 mmHg 39%
    18:00 +23°C° 0 mm 1 mps 690 mmHg 44%
    19:00 +21°C° 0 mm 1 mps 690 mmHg 49%
    20:00 +20°C° 0 mm 1 mps 690 mmHg 50%
    21:00 +19°C° 0 mm 1 mps 691 mmHg 50%
    22:00 +19°C° 0 mm 1 mps 691 mmHg 51%
    23:00 +18°C° 0 mm 1 mps 691 mmHg 51%

    Day after tomorrow, 25 August, Friday

    Time Temperature Precipitation Wind Pressure Humidity
    00:00 +18°C° 0 mm 1 mps 690 mmHg 52%
    01:00 +17°C° 0 mm 2 mps 690 mmHg 52%
    02:00 +16°C° 0 mm 2 mps 690 mmHg 52%
    03:00 +16°C° 0 mm 2 mps 690 mmHg 51%
    04:00 +15°C° 0 mm 2 mps 690 mmHg 51%
    05:00 +17°C° 0 mm 2 mps 690 mmHg 47%
    06:00 +19°C° 0 mm 2 mps 691 mmHg 42%
    07:00 +20°C° 0 mm 2 mps 691 mmHg 38%
    08:00 +24°C° 0 mm 1 mps 692 mmHg 32%
    09:00 +26°C° 0 mm 1 mps 692 mmHg 26%
    10:00 +29°C° 0 mm 1 mps 693 mmHg 20%
    11:00 +29°C° 0 mm 2 mps 693 mmHg 19%
    12:00 +30°C° 0 mm 2 mps 692 mmHg 18%
    13:00 +31°C° 0 mm 2 mps 692 mmHg 17%
    14:00 +30°C° 0 mm 2 mps 692 mmHg 19%
    15:00 +30°C° 0 mm 2 mps 691 mmHg 20%
    16:00 +29°C° 0 mm 2 mps 691 mmHg 21%
    17:00 +26°C° 0 mm 2 mps 691 mmHg 27%
    18:00 +24°C° 0 mm 2 mps 690 mmHg 33%
    19:00 +21°C° 0 mm 1 mps 690 mmHg 39%
    20:00 +20°C° 0 mm 1 mps 690 mmHg 40%
    21:00 +19°C° 0 mm 1 mps 690 mmHg 41%
    22:00 +18°C° 0 mm 2 mps 690 mmHg 42%
    23:00 +17°C° 0 mm 2 mps 690 mmHg 42%

    26 August, Saturday

    Time Temperature Precipitation Wind Pressure Humidity
    00:00 +17°C° 0 mm 2 mps 690 mmHg 42%
    01:00 +17°C° 0 mm 2 mps 689 mmHg 42%
    02:00 +16°C° 0 mm 2 mps 689 mmHg 42%
    03:00 +16°C° 0 mm 2 mps 689 mmHg 43%
    04:00 +16°C° 0 mm 2 mps 689 mmHg 43%
    05:00 +17°C° 0 mm 2 mps 689 mmHg 41%
    06:00 +19°C° 0 mm 2 mps 690 mmHg 39%
    07:00 +21°C° 0 mm 2 mps 690 mmHg 37%
    08:00 +24°C° 0 mm 2 mps 691 mmHg 32%
    09:00 +27°C° 0 mm 1 mps 691 mmHg 28%
    10:00 +29°C° 0 mm 1 mps 691 mmHg 23%
    11:00 +30°C° 0 mm 2 mps 691 mmHg 22%
    12:00 +31°C° 0 mm 2 mps 691 mmHg 21%
    13:00 +31°C° 0 mm 2 mps 691 mmHg 20%
    14:00 +31°C° 0 mm 2 mps 691 mmHg 21%
    15:00 +30°C° 0 mm 2 mps 690 mmHg 22%
    16:00 +30°C° 0 mm 2 mps 690 mmHg 22%
    17:00 +27°C° 0 mm 2 mps 690 mmHg 28%
    18:00 +24°C° 0 mm 2 mps 689 mmHg 34%
    19:00 +22°C° 0 mm 1 mps 689 mmHg 39%
    20:00 +21°C° 0 mm 1 mps 689 mmHg 40%
    21:00 +20°C° 0 mm 1 mps 689 mmHg 40%
    22:00 +20°C° 0 mm 1 mps 689 mmHg 41%
    23:00 +19°C° 0 mm 1 mps 689 mmHg 40%

    27 August, Sunday

    Time Temperature Precipitation Wind Pressure Humidity
    00:00 +18°C° 0 mm 2 mps 688 mmHg 40%
    01:00 +18°C° 0 mm 2 mps 688 mmHg 39%
    02:00 +17°C° 0 mm 2 mps 688 mmHg 39%
    03:00 +17°C° 0 mm 2 mps 688 mmHg 38%
    04:00 +17°C° 0 mm 2 mps 688 mmHg 38%
    05:00 +19°C° 0 mm 2 mps 688 mmHg 36%
    06:00 +21°C° 0 mm 1 mps 689 mmHg 35%
    07:00 +23°C° 0 mm 1 mps 689 mmHg 33%
    08:00 +26°C° 0 mm 1 mps 689 mmHg 29%
    09:00 +28°C° 0 mm 1 mps 690 mmHg 26%
    10:00 +31°C° 0 mm 1 mps 690 mmHg 22%
    11:00 +32°C° 0 mm 1 mps 690 mmHg 21%
    12:00 +32°C° 0 mm 2 mps 690 mmHg 20%
    13:00 +34°C° 0 mm 2 mps 690 mmHg 19%
    14:00 +32°C° 0 mm 2 mps 689 mmHg 20%
    15:00 +32°C° 0 mm 2 mps 689 mmHg 21%
    16:00 +31°C° 0 mm 2 mps 689 mmHg 22%
    17:00 +28°C° 0 mm 2 mps 688 mmHg 27%
    18:00 +26°C° 0 mm 1 mps 688 mmHg 33%
    19:00 +23°C° 0 mm 1 mps 688 mmHg 38%
    20:00 +22°C° 0 mm 1 mps 688 mmHg 38%
    21:00 +22°C° 0 mm 1 mps 688 mmHg 39%
    22:00 +21°C° 0 mm 1 mps 688 mmHg 39%
    23:00 +21°C° 0 mm 1 mps 687 mmHg 38%

    28 August, Monday

    Time Temperature Precipitation Wind Pressure Humidity
    00:00 +20°C° 0 mm 1 mps 687 mmHg 38%
    01:00 +20°C° 0 mm 1 mps 687 mmHg 38%
    02:00 +20°C° 0 mm 1 mps 687 mmHg 38%
    03:00 +20°C° 0 mm 1 mps 687 mmHg 37%
    04:00 +20°C° 0 mm 1 mps 687 mmHg 37%
    05:00 +21°C° 0 mm 1 mps 687 mmHg 36%
    06:00 +23°C° 0 mm 1 mps 688 mmHg 34%
    07:00 +24°C° 0 mm 1 mps 688 mmHg 33%
    08:00 +27°C° 0 mm 1 mps 689 mmHg 29%
    09:00 +29°C° 0 mm 1 mps 689 mmHg 26%
    10:00 +32°C° 0 mm 1 mps 689 mmHg 22%
    11:00 +33°C° 0 mm 1 mps 689 mmHg 21%
    12:00 +34°C° 0 mm 2 mps 689 mmHg 20%
    13:00 +35°C° 0 mm 2 mps 688 mmHg 20%
    14:00 +34°C° 0 mm 2 mps 688 mmHg 21%
    15:00 +34°C° 0 mm 2 mps 688 mmHg 22%
    16:00 +32°C° 0 mm 2 mps 687 mmHg 23%
    17:00 +29°C° 0 mm 2 mps 687 mmHg 28%
    18:00 +27°C° 0 mm 1 mps 687 mmHg 33%
    19:00 +24°C° 0 mm 1 mps 687 mmHg 38%
    20:00 +23°C° 0 mm 1 mps 687 mmHg 39%
    21:00 +23°C° 0 mm 1 mps 687 mmHg 39%
    22:00 +22°C° 0 mm 1 mps 687 mmHg 39%
    23:00 +22°C° 0 mm 1 mps 686 mmHg 39%
    Show more